When you browse on this site, cookies collect data to enhance your experience and personalize the content and advertising you see.
Visit our Privacy Policy to learn more. By continuing to use the site, you agree to this use of cookies and data.
  • In Hungary
  • List of Countries
  • For 7 days
  • Water Temperature
  • Satellite Maps
  • Weather Map
  • News
  • Weather Widgets
  • user-avatar
    Login

    Hourly Weather Vinnitsa

    Today, 18 November, Sunday

    Time Temperature Precipitation Wind Pressure Humidity
    00:00 -2°C° 0 mm 1 mps 747 mmHg 64%
    01:00 -2°C° 0 mm 1 mps 747 mmHg 64%
    02:00 -2°C° 0 mm 1 mps 747 mmHg 64%
    03:00 -2°C° 0 mm 1 mps 746 mmHg 64%
    04:00 -2°C° 0 mm 1 mps 746 mmHg 64%
    05:00 -2°C° 0 mm 1 mps 745 mmHg 63%
    06:00 -2°C° 0 mm 1 mps 745 mmHg 62%
    07:00 -2°C° 0 mm 1 mps 744 mmHg 62%
    08:00 -4°C° 0 mm 2 mps 744 mmHg 61%
    09:00 0°C° 0 mm 1 mps 744 mmHg 57%
    10:00 +1°C° 0 mm 1 mps 743 mmHg 53%
    11:00 +2°C° 0 mm 1 mps 743 mmHg 48%
    12:00 +2°C° 0 mm 1 mps 742 mmHg 48%
    13:00 +3°C° 0 mm 1 mps 742 mmHg 47%
    14:00 +4°C° 0 mm 1 mps 741 mmHg 47%
    15:00 +3°C° 0 mm 1 mps 741 mmHg 51%
    16:00 +1°C° 0 mm 0 mps 741 mmHg 54%
    17:00 0°C° 0 mm 0 mps 740 mmHg 58%
    18:00 0°C° 0 mm 0 mps 740 mmHg 59%
    19:00 0°C° 0 mm 0 mps 740 mmHg 61%
    20:00 0°C° 0 mm 0 mps 740 mmHg 63%
    21:00 0°C° 0 mm 0 mps 740 mmHg 64%
    22:00 0°C° 0 mm 1 mps 740 mmHg 65%
    23:00 0°C° 0 mm 1 mps 740 mmHg 66%

    Tomorrow, 19 November, Monday

    Time Temperature Precipitation Wind Pressure Humidity
    00:00 0°C° 0 mm 1 mps 740 mmHg 67%
    01:00 0°C° 0 mm 1 mps 740 mmHg 67%
    02:00 -2°C° 0 mm 2 mps 740 mmHg 68%
    03:00 -2°C° 0 mm 2 mps 740 mmHg 70%
    04:00 -2°C° 0 mm 2 mps 739 mmHg 72%
    05:00 -3°C° 0 mm 2 mps 739 mmHg 75%
    06:00 -3°C° 0 mm 2 mps 739 mmHg 73%
    07:00 -3°C° 0 mm 2 mps 739 mmHg 71%
    08:00 -4°C° 0 mm 3 mps 739 mmHg 70%
    09:00 -2°C° 0 mm 3 mps 740 mmHg 66%
    10:00 -2°C° 0 mm 4 mps 740 mmHg 63%
    11:00 -2°C° 0 mm 4 mps 740 mmHg 59%
    12:00 -1°C° 0 mm 4 mps 740 mmHg 57%
    13:00 -1°C° 0 mm 4 mps 739 mmHg 56%
    14:00 -1°C° 0 mm 5 mps 739 mmHg 54%
    15:00 -1°C° 0 mm 5 mps 739 mmHg 57%
    16:00 -2°C° 0 mm 5 mps 739 mmHg 60%
    17:00 -4°C° 0 mm 5 mps 739 mmHg 63%
    18:00 -4°C° 0.1 mm 5 mps 739 mmHg 66%
    19:00 -4°C° 0.1 mm 5 mps 739 mmHg 68%
    20:00 -5°C° 0.1 mm 5 mps 740 mmHg 71%
    21:00 -5°C° 0.2 mm 5 mps 740 mmHg 75%
    22:00 -5°C° 0.2 mm 5 mps 740 mmHg 80%
    23:00 -5°C° 0.2 mm 5 mps 740 mmHg 84%

    Day after tomorrow, 20 November, Tuesday

    Time Temperature Precipitation Wind Pressure Humidity
    00:00 -5°C° 0.1 mm 5 mps 740 mmHg 85%
    01:00 -5°C° 0.1 mm 5 mps 740 mmHg 86%
    02:00 -5°C° 0.1 mm 5 mps 740 mmHg 87%
    03:00 -5°C° 0 mm 5 mps 740 mmHg 86%
    04:00 -5°C° 0 mm 5 mps 740 mmHg 85%
    05:00 -5°C° 0 mm 5 mps 740 mmHg 84%
    06:00 -4°C° 0 mm 4 mps 740 mmHg 83%
    07:00 -5°C° 0 mm 4 mps 741 mmHg 82%
    08:00 -5°C° 0 mm 4 mps 741 mmHg 81%
    09:00 -4°C° 0 mm 4 mps 741 mmHg 78%
    10:00 -3°C° 0 mm 4 mps 741 mmHg 76%
    11:00 -2°C° 0 mm 4 mps 741 mmHg 73%
    12:00 -2°C° 0 mm 4 mps 741 mmHg 73%
    13:00 0°C° 0 mm 3 mps 741 mmHg 72%
    14:00 0°C° 0 mm 3 mps 741 mmHg 72%
    15:00 -1°C° 0 mm 3 mps 741 mmHg 76%
    16:00 -3°C° 0 mm 4 mps 741 mmHg 81%
    17:00 -3°C° 0 mm 4 mps 741 mmHg 85%
    18:00 -4°C° 0 mm 4 mps 741 mmHg 87%
    19:00 -4°C° 0 mm 3 mps 741 mmHg 89%
    20:00 -5°C° 0 mm 3 mps 741 mmHg 92%
    21:00 -5°C° 0 mm 3 mps 741 mmHg 91%
    22:00 -5°C° 0 mm 3 mps 741 mmHg 91%
    23:00 -5°C° 0 mm 3 mps 741 mmHg 91%

    21 November, Wednesday

    Time Temperature Precipitation Wind Pressure Humidity
    00:00 -5°C° 0 mm 3 mps 741 mmHg 89%
    01:00 -5°C° 0 mm 3 mps 741 mmHg 88%
    02:00 -5°C° 0 mm 3 mps 741 mmHg 87%
    03:00 -5°C° 0 mm 3 mps 741 mmHg 86%
    04:00 -5°C° 0 mm 3 mps 741 mmHg 86%
    05:00 -5°C° 0 mm 3 mps 741 mmHg 86%
    06:00 -5°C° 0 mm 3 mps 741 mmHg 86%
    07:00 -5°C° 0 mm 4 mps 741 mmHg 85%
    08:00 -5°C° 0 mm 4 mps 741 mmHg 85%
    09:00 -4°C° 0 mm 4 mps 741 mmHg 84%
    10:00 -4°C° 0 mm 4 mps 741 mmHg 82%
    11:00 -3°C° 0 mm 4 mps 742 mmHg 80%
    12:00 -3°C° 0 mm 4 mps 742 mmHg 80%
    13:00 -3°C° 0 mm 4 mps 741 mmHg 80%
    14:00 -2°C° 0 mm 4 mps 741 mmHg 80%
    15:00 -3°C° 0 mm 4 mps 741 mmHg 82%
    16:00 -3°C° 0 mm 4 mps 741 mmHg 84%
    17:00 -3°C° 0 mm 4 mps 741 mmHg 86%
    18:00 -3°C° 0 mm 4 mps 742 mmHg 86%
    19:00 -3°C° 0 mm 4 mps 742 mmHg 86%
    20:00 -3°C° 0 mm 4 mps 742 mmHg 86%
    21:00 -4°C° 0 mm 4 mps 742 mmHg 86%
    22:00 -4°C° 0 mm 3 mps 742 mmHg 86%
    23:00 -4°C° 0 mm 3 mps 742 mmHg 86%

    22 November, Thursday

    Time Temperature Precipitation Wind Pressure Humidity
    00:00 -4°C° 0 mm 3 mps 743 mmHg 87%
    01:00 -4°C° 0 mm 3 mps 743 mmHg 87%
    02:00 -5°C° 0 mm 3 mps 743 mmHg 88%
    03:00 -5°C° 0 mm 3 mps 743 mmHg 89%
    04:00 -5°C° 0 mm 3 mps 743 mmHg 90%
    05:00 -6°C° 0 mm 3 mps 743 mmHg 91%
    06:00 -6°C° 0 mm 3 mps 743 mmHg 91%
    07:00 -6°C° 0 mm 3 mps 743 mmHg 90%
    08:00 -6°C° 0 mm 3 mps 743 mmHg 90%
    09:00 -5°C° 0 mm 3 mps 744 mmHg 84%
    10:00 -4°C° 0 mm 3 mps 744 mmHg 78%
    11:00 -2°C° 0 mm 3 mps 744 mmHg 72%
    12:00 -2°C° 0 mm 3 mps 744 mmHg 70%
    13:00 -1°C° 0 mm 3 mps 744 mmHg 68%
    14:00 -1°C° 0 mm 3 mps 744 mmHg 66%
    15:00 -2°C° 0 mm 2 mps 744 mmHg 71%
    16:00 -3°C° 0 mm 2 mps 744 mmHg 77%
    17:00 -4°C° 0 mm 2 mps 744 mmHg 82%
    18:00 -4°C° 0 mm 2 mps 745 mmHg 84%
    19:00 -4°C° 0 mm 2 mps 745 mmHg 85%
    20:00 -5°C° 0 mm 2 mps 745 mmHg 87%
    21:00 -5°C° 0 mm 2 mps 745 mmHg 87%
    22:00 -5°C° 0 mm 2 mps 746 mmHg 88%
    23:00 -5°C° 0 mm 2 mps 746 mmHg 89%

    23 November, Friday

    Time Temperature Precipitation Wind Pressure Humidity
    00:00 -5°C° 0 mm 2 mps 746 mmHg 89%
    01:00 -5°C° 0 mm 2 mps 746 mmHg 90%
    02:00 -5°C° 0 mm 2 mps 746 mmHg 90%
    03:00 -3°C° 0 mm 1 mps 746 mmHg 91%
    04:00 -3°C° 0 mm 1 mps 746 mmHg 91%
    05:00 -4°C° 0 mm 1 mps 747 mmHg 91%
    06:00 -4°C° 0 mm 1 mps 747 mmHg 91%
    07:00 -4°C° 0 mm 1 mps 747 mmHg 91%
    08:00 -4°C° 0 mm 1 mps 747 mmHg 91%
    09:00 -3°C° 0 mm 1 mps 747 mmHg 84%
    10:00 -1°C° 0 mm 1 mps 748 mmHg 77%
    11:00 0°C° 0 mm 1 mps 748 mmHg 69%
    12:00 0°C° 0 mm 1 mps 748 mmHg 66%
    13:00 +1°C° 0 mm 1 mps 748 mmHg 63%
    14:00 +1°C° 0 mm 1 mps 747 mmHg 60%
    15:00 0°C° 0 mm 1 mps 747 mmHg 65%
    16:00 -1°C° 0 mm 1 mps 747 mmHg 70%
    17:00 -2°C° 0 mm 1 mps 747 mmHg 75%
    18:00 -2°C° 0 mm 1 mps 747 mmHg 76%
    19:00 -2°C° 0 mm 1 mps 747 mmHg 78%
    20:00 -2°C° 0 mm 1 mps 746 mmHg 79%
    21:00 -4°C° 0 mm 2 mps 746 mmHg 80%
    22:00 -5°C° 0 mm 2 mps 746 mmHg 81%
    23:00 -5°C° 0 mm 2 mps 746 mmHg 83%
    Show more